Regional Weather Roundup
Issued by NWS Albany, NY

Home | Current Version | Previous Version | Text Only | Print | Product List | Glossary On
Versions: 1 2 3 4 5 6 7 8 9 10 11 12 13 14 15 16 17 18 19 20 21 22 23 24 25 26 27 28 29 30 31 32 33 34 35 36 37 38 39 40 41 42 43 44 45 46 47 48 49 50
123
ASUS41 KALY 110410
RWRALY

NEW YORK STATE HOURLY WEATHER ROUNDUP
NATIONAL WEATHER SERVICE ALBANY NY
1100 PM EST WED FEB 10 2016

NOTE: "FAIR" INDICATES FEW OR NO CLOUDS BELOW 12,000 FEET WITH NO
SIGNIFICANT WEATHER AND/OR NO OBSTRUCTIONS TO VISIBILITY.

NYZ032-033-038>043-046>054-057>066-NYZ062>081-110500-
EAST


CITY           SKY/WX    TMP DP  RH WIND       PRES   REMARKS
ALBANY         MOCLDY    27  14  58 SW6       29.70R WCI  20
GLENS FALLS    CLOUDY    28  13  53 W7        29.66S WCI  21
POUGHKEEPSIE   CLOUDY    33  18  53 NW8       29.70S WCI  26
NEWBURGH       CLOUDY    30  21  69 NW12G17   29.71R WCI  21
MONTGOMERY     CLOUDY    31  16  54 NW7       29.71R WCI  24
WHITE PLAINS   MOCLDY    31  17  56 W8        29.70R WCI  23
ISLIP          PTCLDY    30  17  58 W9        29.71R WCI  22
NEW YORK CITY  CLOUDY    32  15  49 W15G25    29.75R WCI  22
CENTRAL PARK   CLOUDY    31  15  52 W7G20     29.77R WCI  24
$$

NYZ005>009-017-018-044>046-055-056-110500-
CENTRAL


CITY           SKY/WX    TMP DP  RH WIND       PRES   REMARKS
FULTON         HVY SNOW  23  18  81 W13       29.74R VSB 1/4 WCI  11
SYRACUSE       LGT SNOW  20  18  92 W16       29.74R FOG     WCI   6
ROME           CLOUDY    22  13  68 W12G22    29.72R WCI  10
ELMIRA         PTCLDY    20   4  50 W18G24    29.78R WCI   5
BINGHAMTON     CLOUDY    18   6  59 W12       29.68R WCI   5
MONTICELLO     CLOUDY    21  18  86 W10G20    29.68R WCI  10
$$

NYZ026>034-041>043-110500-
NORTH


CITY           SKY/WX    TMP DP  RH WIND       PRES   REMARKS
WATERTOWN      CLOUDY    21  15  78 W10       29.71R WCI  10
FORT DRUM      NOT AVBL
MASSENA        CLOUDY    18  12  77 W6        29.70R WCI  10
SARANAC LAKE   LGT SNOW  17  14  88 SW6       29.54F FOG     WCI   9
PLATTSBURGH    CLOUDY    18  15  88 CALM      29.65F
$$

NYZ001>004-010>016-019>021-110500-
WEST


CITY           SKY/WX    TMP DP  RH WIND       PRES   REMARKS
NIAGARA FALLS  MOCLDY    16   6  65 W16       29.82R WCI   1
BUFFALO        MOCLDY    15   6  67 W13       29.82R WCI   1
DUNKIRK        CLOUDY    19   3  49 NW18G25   29.85S WCI   4
JAMESTOWN      CLOUDY    12   1  62 W13G18    29.76R WCI  -3
WELLSVILLE     CLEAR     11   2  67 W12       29.72S WCI  -3
ROCHESTER      FLURRIES  18  12  77 W21G29    29.79R WCI   1
PENN YAN       CLOUDY    19   7  59 W16G23    29.75R WCI   4
$$

             KEY
       WCI = WIND CHILL INDEX
       VSB = VISIBILITY
       HX  = HEAT INDEX
$$




USA.gov is the U.S. government's official web portal to all federal, state and local government web resources and services.